Regional Weather Roundup
Issued by NWS Charleston, WV

Home | Current Version | Previous Version | Text Only | Print | Product List | Glossary On
Versions: 1 2 3 4 5 6 7 8 9 10 11 12 13 14 15 16 17 18 19 20 21 22 23 24 25 26 27 28 29 30 31 32 33 34 35 36 37 38 39 40 41 42 43 44 45 46 47 48 49 50
000
ASUS41 KRLX 070510
RWRRLX
Regional Weather Roundup
National Weather Service Charleston WV
1200 AM EST SAT DEC 07 2019

Note: "fair" indicates few or no clouds below 12,000 feet with no
significant weather and/or obstructions to visibility.

WVZ003-070600-
Northern Panhandle of West Virginia

CITY           SKY/WX    TMP DP  RH WIND       PRES   REMARKS
WHEELING       FAIR      31  24  75 W3        30.27S
$$

WVZ009-070600-
Northwest West Virginia

CITY           SKY/WX    TMP DP  RH WIND       PRES   REMARKS
PARKERSBURG    FAIR      32  25  75 N5        30.33S
$$

WVZ006-070600-
Western West Virginia

CITY           SKY/WX    TMP DP  RH WIND       PRES   REMARKS
HUNTINGTON     CLOUDY    40  34  79 N10       30.29R
$$

WVZ015-070600-
West Central West Virginia

CITY           SKY/WX    TMP DP  RH WIND       PRES   REMARKS
CHARLESTON     CLOUDY    41  34  76 N6        30.26R
$$

WVZ022-031-070600-
North Central West Virginia

CITY           SKY/WX    TMP DP  RH WIND       PRES   REMARKS
MORGANTOWN     MOCLDY    33  26  75 N3        30.27R
CLARKSBURG     FAIR      34  26  72 CALM      30.26R
BUCKHANNON     CLOUDY    34  32  93 NE7       30.24R
$$

WVZ025-035-042-045-070600-
Southern West Virginia

CITY           SKY/WX    TMP DP  RH WIND       PRES   REMARKS
BECKLEY        LGT RAIN  41  39  93 NW8       30.18S FOG
LOGAN          CLOUDY    41  41 100 N7        30.23R FOG
PINEVILLE      CLOUDY    42  41  97 MISG      30.25S
BLUEFIELD      CLOUDY    40  37  89 W6        30.19S
LEWISBURG      MOCLDY    41  39  94 CALM      30.17S
$$

WVZ047-070600-
Northern Mountains of West Virginia

CITY           SKY/WX    TMP DP  RH WIND       PRES   REMARKS
ELKINS         CLOUDY    35  29  78 N3        30.22S
$$

WVZ052-070600-
Eastern Panhandle of West Virginia

CITY           SKY/WX    TMP DP  RH WIND       PRES   REMARKS
MARTINSBURG    FAIR      38  23  55 N12       30.23R
PETERSBURG     CLOUDY    39  29  67 N6        30.24R
$$

Southeast Ohio/Northeast Kentucky

CITY           SKY/WX    TMP DP  RH WIND       PRES   REMARKS
ATHENS         FAIR      30  28  93 CALM      30.31S
ASHLAND        CLOUDY    37  31  78 N10       30.33R
$$



USA.gov is the U.S. government's official web portal to all federal, state and local government web resources and services.